LPE2409 MROC-SPJC

Flight info

Callsign LPE2409
Flight time N/A
Altitude 35000
Route DOTAS3D DRAKE UM659 GYV UL780 TRU UV1 ATATU
Aircraft A320/M-SDE3FGHIRWY/LB1

Departure

Time N/A
Airport Juan Santamaría International Airport (MROC)

Arrival

Time 2026-04-29 23:15
Airport Jorge Chávez International Airport (SPJC)
Time Latitude Longitude Altitude Speed Heading
2026-04-29 22:35 -8.22184 -79.03776 36860 ft 466 kts 152°
2026-04-29 22:36 -8.25036 -79.02193 36857 ft 467 kts 152°
2026-04-29 22:36 -8.30730 -78.99037 36856 ft 468 kts 152°
2026-04-29 22:37 -8.36440 -78.95865 36890 ft 469 kts 152°
2026-04-29 22:37 -8.42176 -78.92666 36901 ft 470 kts 152°
2026-04-29 22:38 -8.47873 -78.89498 36905 ft 470 kts 152°
2026-04-29 22:38 -8.53603 -78.86309 36876 ft 470 kts 152°
2026-04-29 22:39 -8.59338 -78.83111 36945 ft 470 kts 153°
2026-04-29 22:39 -8.65070 -78.79921 36914 ft 470 kts 152°
2026-04-29 22:40 -8.69835 -78.77266 36908 ft 470 kts 152°
2026-04-29 22:40 -8.75569 -78.74070 36914 ft 471 kts 152°
2026-04-29 22:41 -8.81310 -78.70875 36900 ft 471 kts 152°
2026-04-29 22:41 -8.87050 -78.67667 36937 ft 471 kts 152°
2026-04-29 22:42 -8.92807 -78.64449 36890 ft 473 kts 152°
2026-04-29 22:42 -8.98546 -78.61246 36899 ft 474 kts 152°
2026-04-29 22:43 -9.04320 -78.58023 36910 ft 475 kts 152°
2026-04-29 22:43 -9.10104 -78.54792 36888 ft 475 kts 152°
2026-04-29 22:44 -9.15897 -78.51575 36878 ft 474 kts 153°
2026-04-29 22:44 -9.21806 -78.48611 36877 ft 474 kts 156°
2026-04-29 22:45 -9.27788 -78.45812 36887 ft 474 kts 156°
2026-04-29 22:45 -9.33761 -78.42982 36883 ft 474 kts 156°
2026-04-29 22:46 -9.39716 -78.40080 36901 ft 474 kts 155°
2026-04-29 22:46 -9.45665 -78.37159 36939 ft 475 kts 155°
2026-04-29 22:47 -9.51617 -78.34263 36975 ft 475 kts 155°
2026-04-29 22:47 -9.57580 -78.31374 36972 ft 475 kts 155°
2026-04-29 22:48 -9.63531 -78.28475 36976 ft 475 kts 155°
2026-04-29 22:48 -9.69458 -78.25585 36975 ft 475 kts 155°
2026-04-29 22:49 -9.75413 -78.22676 37013 ft 475 kts 155°
2026-04-29 22:49 -9.81368 -78.19766 36998 ft 475 kts 155°
2026-04-29 22:50 -9.87333 -78.16865 36998 ft 475 kts 155°
2026-04-29 22:50 -9.93296 -78.13954 36984 ft 475 kts 155°
2026-04-29 22:51 -9.99250 -78.11046 36998 ft 475 kts 156°
2026-04-29 22:51 -10.08196 -78.06675 36988 ft 476 kts 155°
2026-04-29 22:52 -10.14167 -78.03752 36992 ft 476 kts 155°
2026-04-29 22:52 -10.20136 -78.00837 36953 ft 476 kts 155°
2026-04-29 22:53 -10.23097 -77.99393 36635 ft 469 kts 156°
2026-04-29 22:53 -10.25964 -77.97995 36491 ft 456 kts 156°
2026-04-29 22:53 -10.28815 -77.96604 35867 ft 456 kts 156°
2026-04-29 22:53 -10.31684 -77.95206 35127 ft 459 kts 156°
2026-04-29 22:54 -10.34578 -77.93793 34263 ft 465 kts 156°
2026-04-29 22:54 -10.37525 -77.92352 33250 ft 473 kts 156°
2026-04-29 22:54 -10.40508 -77.90895 32325 ft 478 kts 156°
2026-04-29 22:54 -10.43537 -77.89415 31296 ft 485 kts 155°
2026-04-29 22:55 -10.46580 -77.87928 30618 ft 485 kts 155°
2026-04-29 22:55 -10.49617 -77.86444 29937 ft 483 kts 155°
2026-04-29 22:55 -10.52634 -77.84971 29221 ft 480 kts 155°
2026-04-29 22:55 -10.55630 -77.83506 28571 ft 476 kts 155°
2026-04-29 22:56 -10.58600 -77.82052 27915 ft 472 kts 155°
2026-04-29 22:56 -10.61546 -77.80607 27289 ft 468 kts 155°
2026-04-29 22:56 -10.64465 -77.79179 26640 ft 465 kts 155°
2026-04-29 22:56 -10.67370 -77.77761 26006 ft 461 kts 155°
2026-04-29 22:57 -10.70251 -77.76352 25388 ft 458 kts 155°
2026-04-29 22:57 -10.73110 -77.74948 24780 ft 454 kts 155°
2026-04-29 22:57 -10.75937 -77.73558 24257 ft 448 kts 155°
2026-04-29 22:57 -10.78728 -77.72189 23670 ft 444 kts 155°
2026-04-29 22:58 -10.81472 -77.70843 23177 ft 431 kts 155°
2026-04-29 22:58 -10.84142 -77.69531 22443 ft 417 kts 155°
2026-04-29 22:58 -10.86692 -77.68280 22106 ft 398 kts 154°
2026-04-29 22:58 -10.89166 -77.67072 21701 ft 393 kts 154°
2026-04-29 22:59 -10.91621 -77.65874 21234 ft 389 kts 154°
2026-04-29 22:59 -10.94047 -77.64687 20783 ft 385 kts 154°
2026-04-29 22:59 -10.96449 -77.63511 20329 ft 381 kts 153°
2026-04-29 22:59 -10.98832 -77.62342 19865 ft 379 kts 153°
2026-04-29 23:00 -11.01199 -77.61180 19409 ft 377 kts 153°
2026-04-29 23:00 -11.03550 -77.60028 18938 ft 375 kts 153°
2026-04-29 23:00 -11.05895 -77.58876 18470 ft 374 kts 153°
2026-04-29 23:00 -11.08211 -77.57736 17960 ft 374 kts 153°
2026-04-29 23:01 -11.10549 -77.56587 17460 ft 372 kts 153°
2026-04-29 23:01 -11.12869 -77.55447 16980 ft 370 kts 153°
2026-04-29 23:01 -11.15191 -77.54307 16501 ft 369 kts 153°
2026-04-29 23:01 -11.17489 -77.53179 16215 ft 361 kts 153°
2026-04-29 23:02 -11.19714 -77.52087 16088 ft 350 kts 153°
2026-04-29 23:02 -11.21871 -77.51027 15970 ft 339 kts 153°
2026-04-29 23:02 -11.23960 -77.49997 15845 ft 329 kts 153°
2026-04-29 23:02 -11.26004 -77.48996 15590 ft 324 kts 153°
2026-04-29 23:03 -11.28064 -77.48016 15229 ft 324 kts 154°
2026-04-29 23:03 -11.30099 -77.47065 14921 ft 322 kts 155°
2026-04-29 23:03 -11.32130 -77.46122 14609 ft 320 kts 155°
2026-04-29 23:03 -11.34147 -77.45183 14297 ft 317 kts 155°
2026-04-29 23:04 -11.36147 -77.44247 13975 ft 317 kts 155°
2026-04-29 23:04 -11.38148 -77.43307 13639 ft 316 kts 155°
2026-04-29 23:04 -11.40134 -77.42371 13140 ft 311 kts 155°
2026-04-29 23:04 -11.42100 -77.41441 12473 ft 310 kts 155°
2026-04-29 23:05 -11.44054 -77.40519 11833 ft 309 kts 155°
2026-04-29 23:05 -11.46009 -77.39599 11169 ft 309 kts 155°
2026-04-29 23:05 -11.47958 -77.38681 10513 ft 308 kts 155°
2026-04-29 23:05 -11.49901 -77.37767 9936 ft 306 kts 155°
2026-04-29 23:06 -11.51823 -77.36865 9442 ft 302 kts 155°
2026-04-29 23:06 -11.53708 -77.35979 8995 ft 302 kts 155°
2026-04-29 23:06 -11.55611 -77.35081 8561 ft 301 kts 155°
2026-04-29 23:06 -11.57516 -77.34182 8123 ft 302 kts 155°
2026-04-29 23:07 -11.59404 -77.33288 7902 ft 294 kts 155°
2026-04-29 23:07 -11.61222 -77.32425 7780 ft 282 kts 155°
2026-04-29 23:07 -11.62976 -77.31592 7569 ft 275 kts 155°
2026-04-29 23:07 -11.64715 -77.30767 7174 ft 277 kts 155°
2026-04-29 23:08 -11.66467 -77.29939 6847 ft 275 kts 155°
2026-04-29 23:08 -11.68196 -77.29125 6521 ft 273 kts 155°
2026-04-29 23:08 -11.69918 -77.28350 6027 ft 270 kts 159°
2026-04-29 23:08 -11.71655 -77.27649 5450 ft 267 kts 156°
2026-04-29 23:09 -11.73331 -77.26858 4949 ft 262 kts 154°
2026-04-29 23:09 -11.74978 -77.26039 4456 ft 262 kts 154°
2026-04-29 23:09 -11.76566 -77.25253 4268 ft 244 kts 154°
2026-04-29 23:09 -11.78059 -77.24518 4153 ft 239 kts 155°
2026-04-29 23:10 -11.79573 -77.23773 4037 ft 238 kts 154°
2026-04-29 23:10 -11.81071 -77.23035 3860 ft 240 kts 154°
2026-04-29 23:10 -11.82544 -77.22310 3592 ft 237 kts 154°
2026-04-29 23:10 -11.84018 -77.21584 3337 ft 233 kts 154°
2026-04-29 23:11 -11.85466 -77.20870 3094 ft 229 kts 154°
2026-04-29 23:11 -11.86887 -77.20170 3001 ft 223 kts 154°
2026-04-29 23:11 -11.88273 -77.19488 2773 ft 221 kts 154°
2026-04-29 23:11 -11.89633 -77.18817 2512 ft 213 kts 154°
2026-04-29 23:12 -11.90935 -77.18175 2233 ft 202 kts 154°
2026-04-29 23:12 -11.92155 -77.17574 1994 ft 186 kts 155°
2026-04-29 23:12 -11.93275 -77.17022 1780 ft 169 kts 155°
2026-04-29 23:12 -11.94298 -77.16517 1550 ft 158 kts 155°
2026-04-29 23:13 -11.95268 -77.16039 1346 ft 153 kts 156°
2026-04-29 23:13 -11.96215 -77.15573 1149 ft 150 kts 156°
2026-04-29 23:13 -11.97153 -77.15110 942 ft 149 kts 155°
2026-04-29 23:13 -11.98077 -77.14655 743 ft 146 kts 155°
2026-04-29 23:14 -11.98993 -77.14203 553 ft 145 kts 156°
2026-04-29 23:14 -11.99903 -77.13754 349 ft 145 kts 156°
2026-04-29 23:14 -12.00804 -77.13310 173 ft 146 kts 155°
2026-04-29 23:14 -12.01706 -77.12863 46 ft 137 kts 156°
2026-04-29 23:15 -12.02396 -77.12521 46 ft 70 kts 154°
2026-04-29 23:15 -12.02678 -77.12367 52 ft 38 kts 135°
2026-04-29 23:15 -12.02804 -77.12186 57 ft 28 kts 124°
2026-04-29 23:15 -12.02939 -77.12077 64 ft 19 kts 143°